📊 Raw Sensor Data
Showing records 46226 to 46250 of 85,067 total
| ID | Distance (ft) | Battery V | Battery A | Int Temp (°F) | Int Humid (%) | Ext Temp (°F) | Solar V | RSSI | SNR | Time Stamp |
|---|---|---|---|---|---|---|---|---|---|---|
| 38854 | -- | 3.94 | -5 | 52 | 43 | 52 | 0.00 | -74 | 8 | 04/25/2025 10:00 PM |
| 38853 | 15.4 | 4.00 | -5 | 52 | 43 | 52 | 0.00 | -74 | 7 | 04/25/2025 09:45 PM |
| 38852 | 15.4 | 3.94 | -5 | 52 | 43 | 53 | 0.00 | -73 | 8 | 04/25/2025 09:30 PM |
| 38851 | 15.4 | 3.94 | -5 | 53 | 43 | 53 | 0.00 | -75 | 8 | 04/25/2025 09:15 PM |
| 38850 | 15.4 | 3.94 | -5 | 53 | 44 | 53 | 0.00 | -73 | 8 | 04/25/2025 09:00 PM |
| 38849 | 15.4 | 4.01 | -5 | 53 | 44 | 54 | 0.00 | -71 | 8 | 04/25/2025 08:45 PM |
| 38848 | 15.4 | 3.95 | -5 | 54 | 44 | 54 | 0.00 | -74 | 8 | 04/25/2025 08:30 PM |
| 38847 | 15.5 | 3.95 | -5 | 55 | 45 | 55 | 0.00 | -72 | 8 | 04/25/2025 08:15 PM |
| 38846 | -- | 3.95 | -5 | 56 | 45 | 55 | 0.80 | -74 | 8 | 04/25/2025 08:00 PM |
| 38845 | -- | 3.94 | -8 | 57 | 45 | 56 | 3.30 | -73 | 8 | 04/25/2025 07:45 PM |
| 38844 | 15.5 | 3.95 | 0 | 58 | 46 | 57 | 4.50 | -72 | 7 | 04/25/2025 07:30 PM |
| 38843 | 15.5 | 3.98 | 6 | 59 | 46 | 57 | 4.50 | -73 | 8 | 04/25/2025 07:15 PM |
| 38842 | 15.5 | 4.01 | 15 | 62 | 45 | 59 | 4.50 | -73 | 8 | 04/25/2025 07:00 PM |
| 38841 | -- | 4.05 | 42 | 62 | 46 | 60 | 4.50 | -75 | 8 | 04/25/2025 06:45 PM |
| 38840 | -- | 4.04 | 25 | 63 | 47 | 60 | 4.50 | -73 | 8 | 04/25/2025 06:30 PM |
| 38839 | -- | 4.07 | 28 | 64 | 47 | 61 | 4.50 | -74 | 7 | 04/25/2025 06:15 PM |
| 38838 | -- | 3.99 | 5 | 65 | 48 | 62 | 5.10 | -74 | 9 | 04/25/2025 06:00 PM |
| 38837 | 15.7 | 3.99 | 0 | 68 | 49 | 62 | 5.10 | -75 | 8 | 04/25/2025 05:45 PM |
| 38836 | -- | 3.99 | 0 | 73 | 46 | 62 | 5.10 | -75 | 9 | 04/25/2025 05:30 PM |
| 38835 | -- | 3.99 | 0 | 77 | 43 | 68 | 5.10 | -73 | 8 | 04/25/2025 05:15 PM |
| 38834 | -- | 3.99 | 5 | 79 | 41 | 72 | 5.10 | -74 | 8 | 04/25/2025 05:00 PM |
| 38833 | -- | 3.99 | 5 | 75 | 43 | 68 | 5.10 | -74 | 8 | 04/25/2025 04:45 PM |
| 38832 | -- | 3.99 | 0 | 73 | 43 | 62 | 5.10 | -77 | 8 | 04/25/2025 04:30 PM |
| 38831 | -- | 3.99 | 5 | 76 | 41 | 71 | 5.10 | -75 | 8 | 04/25/2025 04:16 PM |
| 38830 | -- | 3.99 | 0 | 75 | 40 | 64 | 5.10 | -77 | 8 | 04/25/2025 04:00 PM |